| time (UTC) | temp F | wind direction | speed MPH | gust MPH | rain 1hr in | rain 24hr in | rain mn in | humidity % | barometer mb |
| 20260506113459 | 53 | 173 | 2.0 | 4.0 | 0.05 | 0.09 | 0.09 | 99 | 1007.9 |
| 20260506112459 | 53 | 186 | 2.0 | 4.0 | 0.02 | 0.09 | 0.09 | 99 | 1007.9 |
| 20260506111454 | 53 | 210 | 2.0 | 4.0 | 0.05 | 0.08 | 0.08 | 98 | 1007.8 |
| 20260506110454 | 53 | 189 | 2.0 | 4.0 | 0.05 | 0.07 | 0.07 | 98 | 1008.1 |
| 20260506105453 | 53 | 201 | 2.0 | 4.0 | 0.05 | 0.07 | 0.07 | 97 | 1007.8 |
| 20260506104448 | 53 | 256 | 1.0 | 2.0 | 0.05 | 0.06 | 0.06 | 97 | 1008.0 |
| 20260506103443 | 53 | 106 | 2.0 | 3.0 | 0.00 | 0.05 | 0.05 | 97 | 1007.8 |
| 20260506102438 | 53 | 69 | 2.0 | 3.0 | 0.02 | 0.05 | 0.05 | 96 | 1007.9 |
| 20260506101437 | 53 | 356 | 3.0 | 3.0 | 0.00 | 0.05 | 0.05 | 95 | 1007.8 |
| 20260506100433 | 53 | 164 | 3.0 | 5.0 | 0.05 | 0.04 | 0.04 | 95 | 1007.7 |
| 20260506095429 | 54 | 143 | 2.0 | 4.0 | 0.02 | 0.04 | 0.04 | 92 | 1007.6 |
| 20260506094429 | 54 | 110 | 1.0 | 5.0 | 0.02 | 0.03 | 0.03 | 90 | 1007.5 |
| 20260506093424 | 54 | 139 | 3.0 | 4.0 | 0.02 | 0.03 | 0.03 | 90 | 1007.5 |
| 20260506092420 | 55 | 195 | 2.0 | 6.0 | 0.02 | 0.02 | 0.02 | 87 | 1007.5 |
| 20260506091420 | 55 | 204 | 3.0 | 6.0 | 0.02 | 0.02 | 0.02 | 87 | 1007.9 |
| 20260506090415 | 54 | 131 | 1.0 | 3.0 | 0.00 | 0.02 | 0.02 | 89 | 1007.6 |
| 20260506085414 | 55 | 185 | 0.0 | 2.0 | 0.02 | 0.02 | 0.02 | 89 | 1007.9 |
| 20260506084413 | 56 | 185 | 2.0 | 4.0 | 0.05 | 0.01 | 0.01 | 82 | 1007.8 |
| 20260506083413 | 57 | 173 | 4.0 | 5.0 | 0.00 | 0.00 | 0.00 | 76 | 1008.1 |
| 20260506082413 | 58 | 189 | 3.0 | 6.0 | 0.00 | 0.00 | 0.00 | 75 | 1008.1 |
| 20260506081413 | 59 | 150 | 3.0 | 6.0 | 0.02 | 0.00 | 0.00 | 74 | 1008.1 |
| 20260506080412 | 59 | 175 | 0.0 | 8.0 | 0.00 | 0.00 | 0.00 | 70 | 1008.4 |
| 20260506073402 | 62 | 185 | 5.0 | 10.0 | 0.00 | 0.00 | 0.00 | 59 | 1007.6 |
| 20260506072402 | 62 | 204 | 4.0 | 5.0 | 0.00 | 0.00 | 0.00 | 59 | 1007.3 |
| 20260506071358 | 62 | 215 | 7.0 | 8.0 | 0.00 | 0.00 | 0.00 | 60 | 1007.6 |
| 20260506070357 | 60 | 171 | 3.0 | 7.0 | 0.00 | 0.00 | 0.00 | 68 | 1007.9 |
| 20260506062340 | 55 | 109 | 0.0 | 2.0 | 0.00 | 0.00 | 0.00 | 96 | 1007.9 |
| 20260506061339 | 55 | 113 | 0.0 | 3.0 | 0.00 | 0.00 | 0.00 | 96 | 1008.6 |
| 20260506060335 | 55 | 105 | 0.0 | 3.0 | 0.00 | 0.00 | 0.00 | 96 | 1008.6 |
| 20260506051324 | 56 | 66 | 3.0 | 4.0 | 0.00 | 0.00 | 0.00 | 94 | 1009.2 |
| 20260506050319 | 56 | 337 | 3.0 | 3.0 | 0.00 | 0.00 | 0.00 | 93 | 1009.4 |
| 20260506044313 | 57 | 36 | 3.0 | 4.0 | 0.00 | 0.00 | 0.00 | 90 | 1009.5 |
| 20260506043313 | 57 | 21 | 2.0 | 3.0 | 0.00 | 0.00 | 0.00 | 87 | 1009.3 |
| 20260506042310 | 58 | 54 | 3.0 | 5.0 | 0.00 | 0.00 | 0.00 | 85 | 1009.1 |
| 20260506041310 | 58 | 44 | 7.0 | 8.0 | 0.00 | 0.00 | 0.00 | 81 | 1009.1 |
| 20260506040305 | 59 | 39 | 8.0 | 9.0 | 0.00 | 0.00 | 0.00 | 77 | 1009.3 |
| 20260506035306 | 62 | 183 | 0.0 | 2.0 | 0.00 | 0.00 | 0.00 | 70 | 1009.5 |
| 20260506034259 | 63 | 137 | 1.0 | 3.0 | 0.00 | 0.00 | 0.00 | 69 | 1009.4 |
| 20260506033258 | 63 | 149 | 4.0 | 6.0 | 0.00 | 0.00 | 0.00 | 68 | 1009.3 |
| 20260506032258 | 63 | 168 | 2.0 | 4.0 | 0.00 | 0.00 | 0.00 | 68 | 1009.5 |
| 20260506031258 | 62 | 174 | 2.0 | 3.0 | 0.00 | 0.00 | 0.00 | 69 | 1009.4 |
| 20260506030254 | 62 | 150 | 2.0 | 4.0 | 0.00 | 0.00 | 0.00 | 68 | 1009.3 |
| 20260506025253 | 63 | 200 | 3.0 | 6.0 | 0.00 | 0.00 | 0.00 | 67 | 1009.5 |
| 20260506024252 | 63 | 144 | 3.0 | 5.0 | 0.00 | 0.00 | 0.00 | 68 | 1009.3 |
| 20260506023251 | 63 | 201 | 3.0 | 4.0 | 0.00 | 0.00 | 0.00 | 67 | 1009.5 |
| 20260506022246 | 64 | 170 | 2.0 | 5.0 | 0.00 | 0.00 | 0.00 | 66 | 1009.6 |
| 20260506021246 | 64 | 166 | 2.0 | 7.0 | 0.00 | 0.00 | 0.00 | 65 | 1009.5 |
| 20260506020246 | 64 | 193 | 3.0 | 4.0 | 0.00 | 0.00 | 0.00 | 64 | 1009.4 |
| 20260506015241 | 64 | 186 | 2.0 | 3.0 | 0.00 | 0.00 | 0.00 | 65 | 1009.4 |
| 20260506014240 | 65 | 151 | 2.0 | 8.0 | 0.00 | 0.00 | 0.00 | 62 | 1009.2 |
| 20260506013240 | 65 | 151 | 3.0 | 5.0 | 0.00 | 0.00 | 0.00 | 62 | 1009.2 |
| 20260506012239 | 66 | 172 | 2.0 | 8.0 | 0.00 | 0.00 | 0.00 | 61 | 1009.4 |
| 20260506011238 | 66 | 195 | 5.0 | 5.0 | 0.00 | 0.00 | 0.00 | 60 | 1009.2 |
| 20260506010233 | 67 | 211 | 1.0 | 8.0 | 0.00 | 0.00 | 0.00 | 59 | 1009.1 |
| 20260506005233 | 67 | 176 | 3.0 | 7.0 | 0.00 | 0.00 | 0.00 | 58 | 1009.0 |
| 20260506004232 | 67 | 175 | 3.0 | 6.0 | 0.00 | 0.00 | 0.00 | 58 | 1009.0 |
| 20260506003231 | 67 | 184 | 1.0 | 4.0 | 0.00 | 0.00 | 0.00 | 59 | 1009.0 |
| 20260506002229 | 66 | 199 | 6.0 | 9.0 | 0.00 | 0.00 | 0.00 | 58 | 1008.5 |
| 20260506001229 | 67 | 150 | 2.0 | 4.0 | 0.00 | 0.00 | 0.00 | 58 | 1008.6 |
| 20260506000223 | 67 | 193 | 3.0 | 4.0 | 0.00 | 0.00 | 0.00 | 57 | 1008.4 |
| 20260505235224 | 68 | 178 | 2.0 | 6.0 | 0.00 | 0.00 | 0.00 | 57 | 1008.7 |
| 20260505234223 | 68 | 211 | 6.0 | 13.0 | 0.00 | 0.00 | 0.00 | 56 | 1008.8 |
| 20260505233218 | 68 | 210 | 4.0 | 5.0 | 0.00 | 0.00 | 0.00 | 56 | 1008.6 |
| 20260505232218 | 69 | 225 | 4.0 | 7.0 | 0.00 | 0.00 | 0.00 | 55 | 1008.5 |
| 20260505231214 | 69 | 227 | 5.0 | 6.0 | 0.00 | 0.00 | 0.00 | 53 | 1008.5 |
| 20260505230213 | 69 | 306 | 3.0 | 8.0 | 0.00 | 0.00 | 0.00 | 52 | 1008.3 |
| 20260505225212 | 70 | 251 | 3.0 | 6.0 | 0.00 | 0.00 | 0.00 | 51 | 1008.4 |
| 20260505224212 | 70 | 227 | 3.0 | 8.0 | 0.00 | 0.00 | 0.00 | 50 | 1008.1 |
| 20260505223211 | 71 | 213 | 8.0 | 13.0 | 0.00 | 0.00 | 0.00 | 50 | 1008.3 |
| 20260505222209 | 71 | 207 | 6.0 | 13.0 | 0.00 | 0.00 | 0.00 | 49 | 1008.0 |
| 20260505221209 | 71 | 213 | 2.0 | 10.0 | 0.00 | 0.00 | 0.00 | 49 | 1007.9 |
| 20260505220204 | 71 | 195 | 4.0 | 10.0 | 0.00 | 0.00 | 0.00 | 48 | 1007.8 |
| 20260505215159 | 71 | 205 | 6.0 | 11.0 | 0.00 | 0.00 | 0.00 | 49 | 1007.6 |
| 20260505214154 | 71 | 227 | 7.0 | 9.0 | 0.00 | 0.00 | 0.00 | 47 | 1007.6 |
| 20260505213153 | 72 | 235 | 8.0 | 18.0 | 0.00 | 0.00 | 0.00 | 45 | 1007.6 |
| 20260505212153 | 72 | 209 | 15.0 | 23.0 | 0.00 | 0.00 | 0.00 | 45 | 1007.4 |
| 20260505211153 | 73 | 221 | 7.0 | 20.0 | 0.00 | 0.00 | 0.00 | 44 | 1007.1 |
| 20260505210152 | 73 | 212 | 7.0 | 23.0 | 0.00 | 0.00 | 0.00 | 43 | 1007.1 |
| 20260505205148 | 74 | 180 | 5.0 | 9.0 | 0.00 | 0.00 | 0.00 | 45 | 1007.0 |
| 20260505204148 | 75 | 166 | 2.0 | 19.0 | 0.00 | 0.00 | 0.00 | 46 | 1007.2 |
| 20260505203148 | 73 | 171 | 4.0 | 17.0 | 0.00 | 0.00 | 0.00 | 47 | 1006.9 |
| 20260505202146 | 73 | 183 | 6.0 | 18.0 | 0.00 | 0.00 | 0.00 | 48 | 1007.1 |
| 20260505201140 | 73 | 230 | 5.0 | 13.0 | 0.00 | 0.00 | 0.00 | 49 | 1007.1 |
| 20260505200135 | 73 | 210 | 7.0 | 10.0 | 0.00 | 0.00 | 0.00 | 51 | 1007.1 |
| 20260505195134 | 72 | 165 | 6.0 | 19.0 | 0.00 | 0.00 | 0.00 | 52 | 1007.2 |
| 20260505194133 | 71 | 222 | 12.0 | 20.0 | 0.00 | 0.00 | 0.00 | 50 | 1007.2 |
| 20260505193133 | 71 | 211 | 15.0 | 18.0 | 0.00 | 0.00 | 0.00 | 49 | 1007.1 |
| 20260505192128 | 72 | 215 | 17.0 | 31.0 | 0.00 | 0.00 | 0.00 | 48 | 1006.8 |
| 20260505191124 | 73 | 210 | 12.0 | 17.0 | 0.00 | 0.00 | 0.00 | 46 | 1006.6 |
| 20260505190121 | 73 | 176 | 4.0 | 19.0 | 0.00 | 0.00 | 0.00 | 48 | 1006.7 |
| 20260505185120 | 74 | 164 | 6.0 | 14.0 | 0.00 | 0.00 | 0.00 | 46 | 1006.8 |
| 20260505184119 | 73 | 210 | 13.0 | 18.0 | 0.00 | 0.00 | 0.00 | 48 | 1007.2 |
| 20260505183114 | 72 | 191 | 5.0 | 22.0 | 0.00 | 0.00 | 0.00 | 51 | 1007.3 |
| 20260505182112 | 75 | 219 | 8.0 | 14.0 | 0.00 | 0.00 | 0.00 | 51 | 1007.8 |
| 20260505181112 | 73 | 211 | 11.0 | 21.0 | 0.00 | 0.00 | 0.00 | 50 | 1007.7 |
| 20260505180111 | 73 | 208 | 4.0 | 19.0 | 0.00 | 0.00 | 0.00 | 51 | 1007.9 |
| 20260505175109 | 71 | 208 | 6.0 | 19.0 | 0.00 | 0.00 | 0.00 | 52 | 1008.0 |
| 20260505174108 | 73 | 198 | 18.0 | 20.0 | 0.00 | 0.00 | 0.00 | 52 | 1008.1 |
| 20260505173108 | 72 | 195 | 14.0 | 16.0 | 0.00 | 0.00 | 0.00 | 51 | 1008.4 |
| 20260505172102 | 71 | 215 | 14.0 | 17.0 | 0.00 | 0.00 | 0.00 | 55 | 1008.5 |
| 20260505171100 | 72 | 176 | 6.0 | 17.0 | 0.00 | 0.00 | 0.00 | 53 | 1008.0 |
| 20260505170059 | 72 | 232 | 7.0 | 13.0 | 0.00 | 0.00 | 0.00 | 54 | 1008.0 |
| 20260505165056 | 71 | 238 | 6.0 | 23.0 | 0.00 | 0.00 | 0.00 | 57 | 1007.7 |
| 20260505164055 | 72 | 220 | 13.0 | 18.0 | 0.00 | 0.00 | 0.00 | 55 | 1008.4 |
| 20260505163050 | 71 | 225 | 18.0 | 23.0 | 0.00 | 0.00 | 0.00 | 56 | 1008.5 |
| 20260505162046 | 71 | 196 | 9.0 | 13.0 | 0.00 | 0.00 | 0.00 | 57 | 1008.9 |
| 20260505161046 | 71 | 171 | 5.0 | 10.0 | 0.00 | 0.00 | 0.00 | 57 | 1008.9 |
| 20260505153038 | 70 | 188 | 6.0 | 19.0 | 0.00 | 0.00 | 0.00 | 59 | 1009.0 |
| 20260505152035 | 70 | 191 | 7.0 | 19.0 | 0.00 | 0.00 | 0.00 | 59 | 1009.0 |
| 20260505151034 | 69 | 211 | 7.0 | 13.0 | 0.00 | 0.00 | 0.00 | 60 | 1009.2 |
| 20260505125006 | 58 | 200 | 10.0 | 16.0 | 0.00 | 0.00 | 0.00 | 81 | 1009.9 |
| 20260505124005 | 61 | 202 | 20.0 | 21.0 | 0.00 | 0.00 | 0.00 | 65 | 1009.8 |
| 20260505123004 | 62 | 165 | 4.0 | 13.0 | 0.00 | 0.00 | 0.00 | 64 | 1009.5 |
| 20260505122004 | 62 | 186 | 5.0 | 15.0 | 0.00 | 0.00 | 0.00 | 65 | 1009.6 |
| 20260505121002 | 63 | 189 | 5.0 | 17.0 | 0.00 | 0.00 | 0.00 | 64 | 1009.5 |
| 20260505115958 | 63 | 206 | 6.0 | 12.0 | 0.00 | 0.00 | 0.00 | 67 | 1009.5 |
| 20260505114958 | 62 | 208 | 11.0 | 12.0 | 0.00 | 0.00 | 0.00 | 66 | 1009.3 |
| 20260505113957 | 61 | 198 | 4.0 | 10.0 | 0.00 | 0.00 | 0.00 | 68 | 1009.3 |